Skip Page Navigation
NASA JPL Caltech
NASA Logo - Jet Propulsion Laboratory + View the NASA Portal
+ Near-Earth Object (NEO) Program
Search JPL
JPL Home Earth Solar System Stars & Galaxies Technology
JPL Solar System Dynamics
BODIES ORBITS EPHEMERIDES TOOLS PHYSICAL DATA DISCOVERY FAQ SITE MAP
JPL Small-Body Database Browser
Search: [ help ]  
100276 (1994 XV)
Classification: Mars-crossing Asteroid          SPK-ID: 2100276
Ephemeris | Orbit Diagram | Orbital Elements | Physical Parameters | Discovery Circumstances | Close-Approach Data ]

[ show orbit diagram ]
Orbital Elements at Epoch 2457000.5 (2014-Dec-09.0) TDB
Reference: JPL 9 (heliocentric ecliptic J2000)
 Element Value Uncertainty (1-sigma)   Units 
e .3711264026975935 1.014e-07  
a 2.432123169108181 1.6212e-08 AU
q 1.529498046439591 2.4328e-07 AU
i 21.10877280129113 1.2136e-05 deg
node 231.6293580804339 2.3858e-05 deg
peri 219.3623162417292 2.6102e-05 deg
M 93.0276831919498 7.816e-06 deg
tp 2456642.497154318243
(2013-Dec-15.99715432)
2.9905e-05 JED
period 1385.405075384971
3.79
1.3852e-05
3.792e-08
d
yr
n .259851798146448 2.5982e-09 deg/d
Q 3.334748291776772 2.2229e-08 AU
  Orbit Determination Parameters
   # obs. used (total)      195  
   data-arc span      7496 days (20.52 yr)  
   first obs. used      1994-12-06  
   last obs. used      2015-06-15  
   planetary ephem.      DE431  
   SB-pert. ephem.      SB431-BIG16  
   condition code      0  
   fit RMS      .56868  
   data source      ORB  
   producer      Otto Matic  
   solution date      2015-Jul-06 14:23:43  

Additional Information
 Earth MOID = .587283 AU 
 T_jup = 3.324 
[ show covariance matrix ]

Ephemeris | Orbit Diagram | Orbital Elements | Physical Parameters | Discovery Circumstances | Close-Approach Data ]

Physical Parameter Table
Parameter Symbol Value Units Sigma Reference Notes
absolute magnitude H 15.9 mag n/a MPO337984  

100276 (1994 XV)          Discovered 1994-Dec-06 by McNaught, R. H. at Siding Spring
Reference: 20051019/Numbers.arcLast Updated: 2005-10-26

[ show close-approach data ]
Ephemeris | Orbit Diagram | Orbital Elements | Physical Parameters | Discovery Circumstances | Close-Approach Data ]
ABOUT SSD CREDITS/AWARDS PRIVACY/COPYRIGHT GLOSSARY LINKS
FirstGov 2015-Aug-01 03:30 UT
(server date/time)  
NASA Home Page
Site Manager:   Ryan S. Park
Webmaster  Alan B. Chamberlin